This demonstration page uses our WeatherBlox Daily Observations layout. Learn more.

Left ArrowRight Arrow

Hourly Observations for February 5, 2019

Temp ( °F °C ) Dew Point ( °F °C ) Humidity (%) Winds ( mph kmh ) Pressure ( in mb ) Visibility ( mi km ) Precip ( " mm )
12:52 am 00:52 Mostly Cloudy 10 -12.2 0 -17.8 63 63 N 12 19 30.21 1023 10 16 0.00 0.00
1:52 am 01:52 Mostly Cloudy 9 -12.8 -1 -18.3 64 64 N 10 17 30.19 1023 10 16 0.00 0.00
2:52 am 02:52 Mostly Cloudy 9 -12.8 0 -17.8 66 66 NNE 14 22 30.18 1022 10 16 0.00 0.00
3:52 am 03:52 Mostly Cloudy 8 -13.3 -1 -18.3 66 66 NNE 9 15 30.18 1022 10 16 0.00 0.00
4:52 am 04:52 Mostly Cloudy 9 -12.8 0 -17.8 66 66 N 12 19 30.19 1022 10 16 0.00 0.00
5:52 am 05:52 Cloudy with Light Snow 9 -12.8 0 -17.8 66 66 NNE 9 15 30.20 1023 10 16 0.00 0.03
6:46 am 06:46 Cloudy 10 -12 1 -17 67 67 N 12 19 30.23 1024 10 16 0.00 0.03
6:52 am 06:52 Cloudy 10 -12.2 1 -17.2 67 67 NNE 12 19 30.17 1022 10 16 0.00 0.03
6:56 am 06:56 Cloudy 10 -12.2 1 -17.2 67 67 N 12 19 30.23 1024 10 16 0.00 0.03
7:01 am 07:01 Cloudy 10 -12.2 1 -17.2 67 67 N 10 17 30.23 1024 10 16 0.00 0.03
7:07 am 07:07 Cloudy 10 -12.2 1 -17.2 67 67 N 10 17 30.23 1024 10 16 0.00 0.03
7:52 am 07:52 Cloudy 10 -12.2 1 -17.2 67 67 N 9 15 30.18 1022 10 16 0.00 0.03
8:52 am 08:52 Cloudy 11 -11.7 1 -17.2 64 64 NNE 9 15 30.18 1022 10 16 0.00 0.00
9:06 am 09:06 Cloudy 11 -11.7 1 -17.2 64 64 NNE 9 15 30.22 1024 10 16 0.00 0.03
9:52 am 09:52 Cloudy 11 -11.7 2 -16.7 67 67 NNE 10 17 30.15 1021 10 16 0.00 0.03
10:52 am 10:52 Cloudy 12 -11.1 2 -16.7 64 64 VRB 6 9 30.14 1021 10 16 0.00 0.00
11:52 am 11:52 Cloudy 13 -10.6 3 -16.1 64 64 ENE 8 13 30.13 1020 10 16 0.00 0.00
12:52 pm 12:52 Cloudy 14 -10 4 -15.6 64 64 NE 5 7 30.10 1019 10 16 0.00 0.00
1:52 pm 13:52 Cloudy with Light Snow 15 -9.4 5 -15 64 64 N 9 15 30.07 1018 5 8 0.00 0.03
2:52 pm 14:52 Cloudy with Light Snow 16 -8.9 6 -14.4 65 65 N 8 13 30.04 1017 5 8 0.00 0.03
3:52 pm 15:52 Cloudy with Light Snow 16 -8.9 6 -14.4 65 65 VRB 5 7 30.04 1017 8 13 0.00 0.03
4:52 pm 16:52 Cloudy with Light Snow 16 -8.9 7 -13.9 67 67 NNW 9 15 30.05 1018 6 10 0.00 0.03
5:52 pm 17:52 Cloudy with Light Snow 15 -9.4 8 -13.3 74 74 NNW 9 15 30.06 1018 4 6 0.00 0.03
6:06 pm 18:06 Cloudy with Light Snow 15 -9.4 8 -13.3 74 74 N 9 15 30.09 1019 2 3 0.00 0.03
6:10 pm 18:10 Cloudy with Light Snow 15 -9.4 8 -13.3 74 74 N 9 15 30.09 1019 4 6 0.00 0.03
6:52 pm 18:52 Cloudy with Light Snow 15 -9.4 8 -13.3 74 74 NNW 9 15 30.07 1018 6 10 0.00 0.03
7:52 pm 19:52 Cloudy with Light Snow 15 -9.4 8 -13.3 74 74 N 10 17 30.07 1018 7 11 0.00 0.03
8:37 pm 20:37 Cloudy with Light Snow 15 -9.4 8 -13.3 74 74 NNW 8 13 30.11 1020 7 11 0.00 0.03
8:52 pm 20:52 Cloudy with Light Snow 15 -9.4 7 -13.9 70 70 NNW 8 13 30.07 1018 7 11 0.00 0.03
9:52 pm 21:52 Cloudy with Light Snow 15 -9.4 7 -13.9 70 70 NNW 10 17 30.07 1018 7 11 0.00 0.03
10:52 pm 22:52 Cloudy with Light Snow 14 -10 7 -13.9 73 73 NNW 10 17 30.08 1019 7 11 0.00 0.03
11:25 pm 23:25 Cloudy with Light Snow 14 -10 8 -13.3 77 77 N 10 17 30.12 1020 6 10 0.00 0.03
11:52 pm 23:52 Cloudy with Light Snow 14 -10 8 -13.3 77 77 NNW 10 17 30.08 1019 6 10 0.00 0.03

Powered by AerisWeather